Regional Weather Roundup
Issued by NWS

Home | Current Version | Previous Version | Text Only | Print | Product List | Glossary On
Versions: 1 2 3 4 5 6 7 8 9 10 11 12 13 14 15 16 17 18 19 20 21 22 23 24 25 26 27 28 29 30 31 32 33 34 35 36 37 38 39 40 41 42 43 44 45 46 47 48 49 50
000
ASUS44 KJAN 280510
RWRMS

MISSISSIPPI HOURLY WEATHER ROUNDUP
NATIONAL WEATHER SERVICE JACKSON MS
1100 PM CST THU NOV 27 2014

NOTE: "FAIR: INDICATES FEW OR NO CLOUDS BELOW 12,000 FEET WITH NO
SIGNIFICANT WEATHER AND/OR OBSTRUCTIONS TO VISIBILITY.

MSZ001>002-007>008-010>013-018>021-025>028-034>036-280600-
NORTHWEST MISSISSIPPI

CITY           SKY/WX    TMP DP  RH WIND       PRES   REMARKS
CLARKSDALE     FAIR      32  32 100 CALM      30.48F
CLEVELAND      FAIR      33  33  96 CALM      30.47F
GREENWOOD      CLEAR     30  27  88 NE3       30.47F
GREENVILLE     CLEAR     33  30  88 CALM      30.47F
GRENADA        FAIR      30  28  93 CALM      30.49S
OLIVE BRANCH   CLEAR     32  32 100 CALM      30.46F
OXFORD         FAIR      28  25  86 E3        30.48F
TUNICA         CLEAR     32  32 100 CALM      30.49S
$$

MSZ003>006-009-014>017-022>024-029>033-037>039-280600-
NORTHEAST MISSISSIPPI

CITY           SKY/WX    TMP DP  RH WIND       PRES   REMARKS
COLUMBUS AFB   CLEAR     28  25  89 NW2       30.47F
CORINTH          N/A     28  25  86 CALM      30.48S
GOLDN TRIANGLE CLEAR     32  27  80 CALM      30.46S
STARKVILLE       N/A     28  28 100 CALM      30.47F
TUPELO         CLEAR     31  25  78 NE5       30.47F WCI  26
$$

MSZ040-058-280600-
CENTRAL MISSISSIPPI

CITY           SKY/WX    TMP DP  RH WIND       PRES   REMARKS
JACKSON INTL   CLEAR     32  29  88 S3        30.46F
JACKSON HAWKNS CLEAR     34  29  82 CALM      30.47S
MERIDIAN KEY   CLEAR     31  28  89 NW3       30.46F
MERIDIAN NAS   CLEAR     31  28  89 CALM      30.47F
RAYMOND        FAIR      32  27  80 MISG      30.47F
VICKSBURG      CLEAR     31  30  96 CALM      30.48F
$$

MSZ059>079-280600-
SOUTH MISSISSIPPI

CITY           SKY/WX    TMP DP  RH WIND       PRES   REMARKS
BROOKHAVEN     FAIR      34  32  93 CALM      30.47F
HATTIESBURG    CLEAR     36  33  89 CALM      30.46S
MCCOMB         CLEAR     40  30  67 NE6       30.45F
NATCHEZ        CLEAR     34  28  80 CALM      30.46F
PINE BELT      CLEAR     37  28  70 N5        30.46S WCI  34
$$

MSZ080>082-280600-
COASTAL MISSISSIPPI

CITY           SKY/WX    TMP DP  RH WIND       PRES   REMARKS
BILOXI         CLEAR     42  34  73 NE6       30.44F
PASCAGOULA     CLEAR     33  31  92 N3        30.44F
GULFPORT       CLEAR     42  32  67 N5        30.44S
$$



USA.gov is the U.S. government's official web portal to all federal, state and local government web resources and services.